Probability
0 0 13 26 39 19 10 0 0 0 0 0 6 6 10 13 19 26 32 32 45 55 68 68 74 74 74 65 68 71 68 71 74 77 77 74 77 74 68 71 71 68 65 58 55 61 52 52 52
3 13 10 19 23 3 0 0 3 3 0 3 3 6 10 23 26 29 32 26 45 58 61 58 77 77 71 71 71 77 74 71 71 71 71 74 74 74 71 65 68 71 58 52 58 58 48 48 45
3 6 6 16 10 0 0 0 3 3 3 3 3 6 13 23 26 29 29 19 29 52 58 81 84 77 71 71 68 65 71 71 71 65 65 68 71 71 65 65 65 61 61 61 61 58 52 45 42
6 10 6 3 3 0 0 3 3 3 3 3 0 6 19 23 29 29 29 19 29 52 55 74 84 71 71 71 71 61 65 68 71 61 61 65 61 61 61 58 61 58 61 61 58 58 55 42 42
6 3 3 0 0 0 0 0 3 3 3 3 0 13 23 29 29 29 23 16 26 55 52 61 77 71 68 68 68 65 65 61 61 65 65 65 68 61 61 61 61 58 61 61 61 55 52 48 42
6 0 0 0 0 0 0 0 3 3 3 3 0 16 26 29 29 29 19 23 32 52 55 68 77 71 71 71 68 58 58 58 52 58 61 68 68 61 61 61 58 58 65 61 58 55 39 39 32
3 3 0 0 0 0 0 3 3 3 3 3 3 13 23 29 39 32 26 26 35 52 58 65 71 68 71 71 65 65 65 61 61 58 65 61 71 68 65 65 55 52 58 55 48 39 39 35 29
3 0 0 0 0 0 0 3 3 3 3 0 3 6 23 32 39 39 32 26 35 55 52 61 61 58 58 58 61 68 68 65 61 58 58 65 61 65 65 61 61 45 52 48 45 42 35 32 26
0 0 0 0 0 3 3 3 3 0 0 0 13 16 32 32 35 35 26 29 32 45 48 52 58 55 52 55 58 61 61 58 55 55 61 55 52 42 48 45 55 48 48 42 45 45 35 32 29
3 0 0 3 3 3 3 3 3 0 0 3 13 29 29 35 32 39 29 29 35 39 42 42 48 48 48 48 58 61 55 52 52 58 55 55 58 52 39 52 48 48 45 42 42 42 45 39 19
0 0 0 0 3 3 0 0 3 3 3 6 19 26 29 29 32 29 32 35 42 39 42 42 39 48 52 48 52 61 58 61 52 61 61 65 48 45 45 48 45 52 45 45 42 39 35 26 26
0 0 0 0 0 3 3 0 0 0 3 6 16 26 29 32 32 32 29 35 42 42 48 48 45 52 52 55 52 61 61 55 52 52 58 61 58 58 55 55 52 42 48 32 39 42 39 29 26
0 0 0 0 0 0 0 0 0 0 3 10 19 19 26 29 26 39 42 39 45 48 52 52 55 68 68 77 65 58 61 55 52 58 58 52 68 68 55 58 52 39 35 42 32 32 29 32 23
0 0 0 0 0 0 0 0 0 0 6 16 23 23 23 23 16 26 35 45 48 55 58 61 55 74 84 74 74 68 61 68 55 65 58 52 65 68 55 55 48 52 42 35 32 29 29 32 26
0 0 0 0 0 0 0 0 0 0 3 13 26 23 23 29 23 26 35 48 52 61 65 71 68 71 77 74 77 61 68 48 61 65 58 58 65 65 55 52 55 48 45 45 32 32 29 32 26
0 0 0 0 0 0 0 0 3 3 3 16 23 23 26 26 29 26 39 55 55 68 74 74 55 65 77 81 81 77 65 65 61 61 65 65 61 61 55 55 52 55 45 48 39 29 29 32 35
0 0 0 0 0 0 0 3 3 3 3 10 23 23 26 29 32 35 42 42 58 81 77 77 74 71 74 81 87 81 74 68 65 61 65 65 55 52 58 58 55 48 45 42 29 35 39 32 35
0 0 0 0 0 0 0 3 3 3 3 13 23 23 29 29 39 39 42 45 65 74 77 77 74 74 77 77 77 77 71 65 61 61 65 65 58 45 58 61 55 48 55 55 45 45 48 39 35
0 0 0 0 0 0 0 3 6 3 3 13 23 19 29 32 42 39 45 42 61 74 74 74 74 81 81 81 71 68 61 61 65 61 65 61 58 61 61 58 61 58 52 48 45 35 35 39 35
0 0 0 0 0 3 3 3 6 6 6 13 19 23 29 35 42 45 52 58 71 74 68 74 71 74 77 77 77 74 71 65 65 61 61 55 58 61 39 58 61 55 55 61 48 45 39 32 35
0 0 0 0 0 3 3 3 6 6 6 10 19 23 32 35 42 48 52 58 65 65 65 61 71 74 68 71 65 71 74 68 65 65 58 55 52 52 52 48 61 61 61 48 52 45 42 35 32
0 0 0 0 0 0 0 0 10 6 10 10 10 26 29 42 45 52 61 61 65 61 61 65 65 71 74 71 65 65 61 65 68 61 58 52 52 55 52 52 55 58 52 52 45 45 42 39 35
0 0 0 0 0 0 0 0 0 10 10 10 13 26 32 35 42 52 55 61 65 61 61 65 65 61 68 71 71 68 61 65 61 61 58 58 55 52 52 52 55 55 58 48 48 48 42 39 42
0 0 0 0 0 0 0 0 0 3 6 13 19 16 29 35 39 45 58 61 65 61 61 61 68 61 61 65 65 68 68 68 58 58 55 52 52 52 48 45 52 55 55 55 55 45 42 45 42
0 0 0 0 0 0 0 0 3 3 3 16 16 19 26 39 42 42 58 65 65 58 58 58 61 65 61 61 65 61 65 58 58 55 52 52 45 48 55 35 52 52 52 52 52 48 45 45 42
0 0 0 0 0 0 0 3 0 6 3 13 19 23 26 32 39 52 52 68 61 61 61 65 61 61 65 65 58 61 61 58 58 58 52 55 52 48 55 58 48 52 45 39 48 48 48 48 52
0 0 0 0 0 0 0 3 13 6 13 13 23 19 26 32 32 42 52 58 61 61 65 65 61 61 65 61 58 58 61 58 55 58 58 55 52 48 52 48 48 48 52 42 48 42 48 55 48
0 0 0 0 0 0 0 3 16 16 16 13 23 29 23 29 32 39 52 52 58 58 58 61 61 65 65 58 55 55 55 55 58 52 55 52 48 45 42 42 45 45 48 48 48 42 48 52 48
0 0 0 0 0 0 0 3 6 26 26 19 23 29 23 26 35 42 39 45 55 55 55 52 58 61 58 58 55 55 55 52 55 55 42 45 42 45 45 42 42 52 42 45 45 45 42 42 45
0 0 0 0 0 0 0 10 13 16 19 23 26 26 23 29 32 39 35 39 45 48 48 48 45 45 52 52 48 52 52 52 52 45 48 42 42 42 42 42 42 45 45 45 45 39 39 42 45
Height
5892 5893 5894 5896 5896 5897 5898 5898 5897 5895 5894 5894 5893 5891 5890 5889 5888 5890 5886 5884 5883 5882 5880 5879 5878 5876 5875 5875 5874 5873 5873 5872 5871 5871 5871 5870 5870 5870 5870 5870 5869 5869 5869 5869 5869 5869 5870 5870 5870
5892 5893 5895 5895 5896 5897 5898 5897 5896 5894 5894 5893 5892 5891 5890 5889 5888 5887 5885 5884 5883 5882 5881 5879 5878 5877 5876 5875 5874 5874 5873 5873 5872 5871 5871 5871 5870 5870 5870 5870 5870 5869 5870 5870 5869 5870 5870 5870 5871
5892 5893 5894 5895 5897 5898 5898 5897 5894 5894 5893 5893 5892 5891 5890 5889 5888 5887 5885 5884 5883 5882 5881 5879 5878 5877 5876 5875 5875 5874 5874 5873 5873 5872 5871 5871 5871 5870 5870 5870 5870 5870 5870 5870 5870 5870 5870 5871 5871
5891 5892 5894 5896 5897 5897 5897 5895 5894 5894 5893 5892 5891 5890 5889 5889 5888 5887 5885 5884 5883 5882 5881 5880 5878 5877 5876 5876 5875 5875 5874 5873 5873 5872 5872 5871 5871 5870 5870 5870 5870 5870 5870 5870 5870 5870 5870 5871 5871
5889 5891 5893 5895 5897 5897 5896 5894 5894 5894 5892 5891 5891 5889 5889 5888 5887 5886 5885 5884 5883 5882 5881 5880 5879 5878 5877 5876 5875 5875 5874 5873 5873 5872 5872 5871 5870 5870 5870 5870 5870 5870 5870 5869 5869 5870 5870 5870 5871
5888 5890 5892 5894 5896 5896 5895 5894 5893 5893 5891 5890 5890 5889 5888 5888 5887 5885 5885 5883 5883 5882 5881 5880 5879 5878 5877 5876 5875 5875 5874 5873 5872 5872 5871 5871 5870 5870 5870 5870 5870 5870 5869 5869 5869 5870 5870 5870 5870
5887 5888 5890 5892 5895 5894 5894 5893 5893 5892 5891 5890 5889 5888 5887 5887 5886 5885 5884 5883 5882 5881 5880 5879 5878 5877 5877 5876 5875 5874 5874 5873 5872 5871 5871 5871 5870 5869 5869 5869 5869 5869 5869 5869 5869 5869 5870 5870 5870
5885 5887 5888 5891 5894 5894 5892 5892 5891 5891 5889 5889 5889 5887 5886 5886 5885 5884 5883 5882 5882 5881 5880 5879 5878 5877 5876 5875 5874 5873 5873 5872 5871 5871 5870 5870 5869 5869 5869 5869 5868 5869 5869 5868 5869 5869 5869 5870 5870
5882 5886 5887 5890 5892 5892 5891 5890 5889 5889 5888 5888 5887 5886 5886 5885 5884 5883 5883 5882 5881 5880 5879 5878 5877 5876 5875 5874 5873 5872 5872 5871 5870 5870 5870 5869 5869 5868 5868 5868 5868 5868 5868 5868 5868 5868 5869 5869 5869
5881 5883 5885 5888 5889 5889 5888 5887 5887 5887 5887 5886 5885 5885 5885 5884 5884 5883 5882 5881 5880 5879 5878 5877 5876 5875 5874 5873 5872 5872 5871 5870 5870 5869 5869 5869 5868 5868 5868 5868 5867 5867 5867 5867 5868 5868 5868 5868 5869
5878 5880 5882 5883 5884 5885 5885 5885 5885 5885 5885 5884 5883 5883 5883 5883 5882 5882 5881 5880 5879 5878 5877 5876 5875 5874 5873 5872 5871 5871 5870 5870 5869 5869 5868 5868 5867 5867 5867 5867 5866 5866 5866 5866 5866 5867 5867 5867 5868
5874 5877 5878 5879 5879 5881 5882 5883 5883 5883 5883 5882 5881 5881 5882 5881 5881 5880 5879 5878 5877 5877 5876 5875 5874 5873 5872 5871 5870 5869 5869 5868 5868 5868 5867 5867 5866 5866 5866 5866 5866 5865 5865 5865 5865 5866 5866 5867 5867
5870 5873 5874 5875 5876 5877 5878 5879 5880 5880 5880 5879 5879 5879 5879 5879 5878 5878 5877 5876 5876 5875 5874 5873 5872 5871 5870 5869 5868 5868 5867 5867 5866 5866 5866 5865 5865 5865 5865 5865 5865 5864 5864 5865 5865 5865 5866 5866 5867
5867 5868 5870 5871 5872 5873 5875 5876 5877 5878 5877 5877 5877 5877 5876 5877 5876 5876 5875 5875 5874 5873 5872 5871 5870 5869 5868 5867 5867 5866 5865 5865 5865 5864 5864 5864 5864 5863 5864 5864 5863 5863 5864 5864 5864 5865 5865 5865 5866
5862 5864 5866 5867 5869 5870 5872 5873 5874 5875 5875 5875 5874 5874 5874 5874 5873 5873 5873 5872 5872 5871 5869 5867 5867 5867 5866 5865 5865 5864 5863 5863 5863 5863 5862 5862 5862 5862 5862 5862 5863 5863 5863 5863 5864 5864 5865 5865 5865
5858 5860 5862 5864 5865 5867 5870 5870 5871 5871 5871 5872 5871 5872 5871 5871 5871 5871 5870 5869 5869 5868 5867 5865 5864 5864 5864 5863 5862 5862 5862 5861 5861 5861 5861 5861 5860 5860 5861 5861 5861 5862 5862 5862 5863 5863 5864 5864 5864
5854 5856 5858 5861 5862 5863 5865 5866 5868 5868 5869 5868 5868 5868 5869 5868 5868 5868 5867 5867 5866 5865 5864 5864 5863 5862 5861 5860 5860 5860 5859 5859 5860 5860 5860 5860 5859 5859 5859 5860 5860 5860 5861 5861 5862 5862 5862 5863 5863
5852 5854 5856 5858 5860 5860 5861 5862 5864 5865 5865 5865 5865 5865 5865 5865 5865 5864 5864 5863 5863 5862 5862 5861 5860 5859 5859 5858 5857 5857 5857 5857 5858 5858 5858 5858 5858 5857 5858 5858 5858 5859 5859 5860 5860 5861 5861 5861 5861
5847 5850 5853 5855 5856 5857 5858 5859 5860 5861 5861 5861 5861 5861 5861 5861 5861 5860 5860 5859 5859 5858 5858 5858 5857 5857 5856 5855 5855 5855 5855 5855 5856 5856 5856 5856 5856 5856 5856 5856 5857 5857 5858 5858 5858 5859 5859 5859 5859
5842 5845 5848 5852 5852 5852 5854 5855 5856 5857 5858 5858 5857 5857 5856 5856 5856 5856 5856 5855 5855 5855 5855 5854 5854 5853 5853 5852 5852 5852 5852 5852 5853 5853 5853 5853 5853 5853 5854 5854 5855 5855 5856 5856 5856 5856 5857 5857 5857
5837 5840 5844 5847 5848 5848 5850 5851 5852 5853 5854 5853 5853 5852 5852 5852 5852 5852 5852 5851 5851 5851 5851 5850 5850 5849 5849 5849 5849 5849 5849 5849 5849 5849 5850 5850 5850 5851 5852 5852 5853 5853 5854 5854 5854 5854 5854 5854 5854
5833 5836 5840 5842 5843 5845 5846 5847 5848 5848 5848 5848 5849 5848 5848 5848 5847 5848 5847 5847 5847 5847 5846 5846 5845 5845 5846 5846 5846 5845 5846 5846 5846 5846 5847 5847 5848 5848 5849 5849 5850 5850 5851 5852 5852 5851 5851 5851 5851
5829 5832 5835 5836 5838 5840 5842 5842 5844 5843 5843 5844 5844 5843 5843 5843 5843 5844 5843 5843 5843 5842 5842 5842 5841 5841 5842 5842 5842 5842 5842 5842 5842 5843 5843 5844 5845 5845 5846 5847 5847 5847 5848 5848 5849 5849 5848 5848 5848
5824 5827 5829 5831 5833 5835 5838 5839 5839 5839 5839 5839 5839 5839 5839 5839 5839 5839 5839 5838 5838 5838 5838 5838 5837 5837 5837 5837 5837 5837 5838 5838 5838 5839 5839 5840 5841 5842 5843 5843 5844 5844 5844 5845 5845 5845 5845 5845 5845
5821 5823 5826 5828 5829 5831 5834 5835 5835 5835 5835 5835 5835 5834 5833 5834 5834 5834 5834 5833 5833 5833 5833 5833 5833 5833 5833 5833 5833 5833 5833 5834 5834 5835 5836 5837 5838 5838 5839 5840 5840 5840 5841 5841 5841 5841 5841 5841 5841
5817 5820 5823 5825 5827 5829 5830 5830 5830 5829 5830 5830 5830 5829 5829 5830 5830 5828 5829 5829 5829 5829 5829 5829 5829 5829 5829 5830 5829 5829 5829 5830 5830 5831 5832 5833 5834 5835 5835 5836 5836 5837 5837 5837 5838 5838 5838 5838 5837
5813 5815 5819 5822 5823 5825 5826 5826 5825 5824 5824 5823 5824 5824 5825 5825 5825 5825 5824 5824 5824 5825 5825 5825 5825 5825 5825 5825 5825 5825 5825 5826 5826 5827 5828 5829 5830 5831 5832 5832 5832 5833 5833 5833 5833 5834 5833 5833 5833
5808 5811 5814 5816 5818 5820 5822 5821 5821 5820 5819 5820 5819 5820 5821 5820 5820 5821 5821 5820 5820 5821 5821 5821 5821 5821 5821 5821 5821 5822 5822 5822 5823 5824 5824 5825 5826 5826 5827 5827 5828 5828 5828 5829 5829 5829 5829 5828 5828
5803 5805 5807 5810 5813 5815 5816 5818 5815 5814 5814 5815 5815 5815 5815 5815 5815 5816 5816 5816 5816 5817 5817 5817 5817 5817 5817 5817 5817 5818 5818 5818 5819 5820 5821 5821 5822 5822 5822 5822 5823 5823 5824 5824 5824 5824 5824 5823 5823
5798 5800 5803 5805 5806 5808 5810 5813 5809 5809 5809 5809 5809 5809 5810 5811 5811 5811 5811 5811 5812 5812 5812 5813 5813 5813 5812 5813 5813 5813 5814 5814 5815 5816 5817 5817 5817 5818 5817 5817 5818 5818 5818 5818 5818 5818 5818 5818 5818
Wind_Speed
3 4 5 6 7 6 4 2 4 7 7 6 5 5 5 7 7 8 8 9 9 9 8 8 8 8 7 6 4 3 2 1 0 0 0 1 1 1 1 1 1 1 1 1 2 3 3 3 3
4 4 5 6 6 2 2 1 6 8 7 6 6 6 6 7 7 7 8 9 9 8 8 8 8 8 7 6 4 3 2 2 1 1 1 1 1 1 1 1 0 1 1 1 2 3 3 3 2
5 5 5 5 3 1 2 6 8 9 7 6 6 7 7 7 7 7 8 8 8 7 7 7 7 7 7 5 4 3 3 2 2 2 2 1 1 1 1 2 1 1 1 1 2 2 2 2 2
6 6 6 5 1 2 5 8 9 9 8 6 6 7 7 7 8 8 8 8 8 7 7 8 7 7 7 5 4 4 3 3 3 3 2 2 2 2 2 2 2 2 1 1 2 2 2 2 2
8 7 6 4 3 6 9 10 9 8 9 7 6 7 8 8 8 9 9 9 8 7 8 7 7 7 6 5 5 4 4 4 4 4 3 3 3 3 3 3 2 2 2 2 3 2 3 3 2
8 7 5 4 7 10 11 10 8 7 10 9 9 8 8 9 9 9 9 9 9 8 8 8 7 7 7 6 6 6 5 5 5 4 4 4 4 4 3 3 3 3 3 2 2 2 3 3 3
10 9 7 5 8 10 12 11 10 8 10 9 9 10 9 10 9 9 9 9 9 8 8 8 8 8 7 6 7 7 6 6 6 5 5 5 4 4 4 3 4 3 3 2 2 2 2 3 4
10 10 9 7 8 12 15 14 11 10 10 10 10 10 10 11 10 9 9 9 9 9 9 9 9 9 8 8 7 7 7 7 7 6 6 6 5 5 5 4 4 4 4 3 3 2 3 3 4
12 11 9 8 10 13 15 14 13 12 11 11 12 11 11 11 11 10 10 10 10 9 9 10 9 10 9 9 8 8 8 8 7 7 6 6 6 6 6 5 5 4 5 5 4 3 3 4 4
13 12 10 10 11 13 15 15 14 13 12 12 13 12 12 12 12 11 11 10 11 10 10 10 11 11 10 10 9 9 8 8 8 7 6 6 6 6 5 5 5 4 4 5 5 4 4 3 4
15 14 12 15 16 15 16 15 13 12 12 13 13 14 12 13 13 12 12 11 11 12 12 12 13 13 12 11 11 9 9 9 9 8 7 7 6 6 5 5 5 5 5 4 4 5 5 4 4
16 16 17 18 20 18 17 17 15 14 14 14 15 15 14 15 14 13 13 12 12 12 13 13 13 13 13 12 12 11 10 10 9 9 8 8 7 6 5 6 6 5 5 5 5 4 4 4 4
18 18 19 19 20 20 18 17 17 16 16 16 17 16 16 15 15 14 13 13 13 13 13 13 14 14 14 13 12 11 11 11 11 9 9 8 7 7 7 7 6 6 5 4 5 5 5 4 4
18 20 20 20 20 20 19 18 18 17 17 17 17 17 17 16 16 15 14 14 14 14 14 14 14 14 13 12 12 12 11 11 11 11 11 10 9 8 8 7 7 7 6 5 5 5 5 5 5
19 20 20 20 19 19 19 18 19 17 17 18 18 17 18 16 16 15 15 15 15 15 14 15 13 14 14 13 12 12 12 11 11 11 11 10 10 9 9 8 7 7 7 6 6 5 6 6 6
19 20 19 19 18 18 19 18 18 18 18 18 19 18 17 17 17 16 16 16 16 16 15 14 14 14 14 14 13 12 12 11 11 11 11 10 10 9 8 8 8 7 7 7 7 7 7 6 6
18 19 18 18 18 18 18 18 17 18 19 19 19 18 18 18 18 17 17 17 17 17 16 15 15 14 14 14 14 13 12 12 11 11 11 10 10 9 8 8 8 9 8 8 7 7 7 7 7
17 17 17 18 18 19 19 18 18 18 19 19 20 19 19 19 19 18 18 19 18 17 16 16 15 15 15 15 15 14 14 13 12 12 12 12 11 10 10 9 9 9 9 9 9 9 8 9 9
18 18 18 18 19 20 20 19 18 18 19 19 20 21 20 20 19 19 19 19 19 18 17 17 17 16 16 15 15 14 14 14 13 13 12 12 11 11 10 10 9 10 10 10 10 11 10 11 11
20 20 17 16 19 21 21 19 18 19 20 20 21 22 21 21 20 19 19 19 19 19 18 18 18 17 17 16 15 14 14 14 14 13 13 12 12 11 11 11 10 11 11 11 11 11 12 12 12
21 21 19 17 19 20 21 20 19 19 20 21 22 22 21 22 21 20 19 19 19 19 19 19 18 18 17 16 15 14 14 14 14 14 13 12 12 12 13 12 12 12 12 12 12 12 12 13 13
20 20 20 18 18 19 19 19 19 19 20 21 21 22 22 22 20 19 20 19 19 19 19 18 17 16 16 16 15 15 15 15 15 14 14 13 13 13 13 13 13 13 13 13 13 13 13 13 13
19 18 19 19 19 19 19 18 18 19 20 21 22 21 19 19 19 19 20 19 19 19 19 18 18 17 17 16 16 17 17 16 16 16 16 15 14 14 13 13 14 14 14 14 13 14 14 14 14
19 19 19 18 17 20 18 18 19 19 22 21 21 20 18 18 19 19 19 19 18 18 18 17 17 17 17 17 17 17 18 17 17 16 16 16 16 15 14 14 14 14 14 14 14 14 15 15 15
19 19 17 18 18 19 17 18 19 19 21 21 22 20 19 19 20 19 18 18 18 17 16 16 17 16 16 17 17 17 18 18 17 17 17 17 16 16 15 15 15 15 15 15 15 15 15 16 16
20 19 19 18 17 17 17 19 19 19 19 21 23 22 22 20 20 20 18 18 18 17 16 16 17 16 16 17 17 17 17 18 18 18 17 17 17 17 17 17 16 16 16 16 16 16 16 16 16
20 20 19 19 17 17 17 20 22 21 21 22 21 20 21 20 20 20 19 19 18 17 16 16 16 17 17 17 18 17 17 17 18 18 17 17 18 18 18 18 18 17 17 17 17 17 17 17 17
20 20 20 21 19 19 18 21 23 24 23 22 22 22 22 21 20 19 19 20 18 17 17 17 16 16 17 17 17 18 17 17 17 17 17 18 19 20 20 20 19 18 18 18 18 18 18 18 18
20 21 21 21 21 20 18 20 22 24 22 21 21 22 22 21 21 20 20 21 20 19 18 17 17 17 18 18 18 18 18 17 18 18 19 19 19 20 21 22 20 19 19 19 19 20 20 20 20
19 20 20 22 22 21 20 21 22 22 21 22 21 20 20 20 22 22 21 21 21 20 19 19 18 18 19 19 19 19 19 18 19 19 20 21 21 22 22 22 21 21 21 21 21 21 21 21 21
Wind_Direction
146 125 113 108 91 81 68 59 293 289 290 304 316 316 323 324 334 336 338 343 351 355 1 3 5 6 8 9 13 17 16 4 4 15 273 231 212 188 153 120 129 162 186 199 189 174 158 164 155
163 148 131 104 81 89 92 271 280 290 303 315 312 309 311 318 329 332 334 339 348 354 2 1 4 6 7 6 9 9 7 17 22 14 342 277 228 216 212 203 127 166 184 172 161 165 159 157 150
177 163 135 107 79 332 278 263 278 289 303 313 304 300 306 319 327 330 331 335 347 353 1 1 1 2 4 5 7 6 8 11 5 357 337 321 287 251 248 242 245 192 192 183 171 182 183 182 174
186 171 144 125 111 279 256 264 281 291 301 310 308 303 312 318 324 327 328 334 344 349 354 356 356 354 358 1 357 354 351 345 341 336 329 314 287 284 271 263 256 248 237 223 216 212 210 206 208
196 190 170 159 226 255 258 266 282 294 301 310 307 304 313 319 322 324 326 330 338 342 344 348 349 346 348 350 346 337 332 328 326 322 316 310 299 294 290 280 268 257 246 235 236 233 224 219 212
207 199 199 199 237 252 262 271 287 291 290 302 304 303 309 317 320 323 326 329 329 333 334 337 341 342 338 334 332 328 321 319 316 319 312 305 305 297 294 288 276 274 265 252 250 239 217 229 216
217 213 199 207 250 261 263 267 277 273 281 291 297 296 305 313 318 320 324 327 325 331 332 333 331 334 329 321 319 319 317 310 307 310 311 306 302 297 297 285 275 280 273 251 248 236 225 232 221
219 219 206 210 247 260 264 265 270 272 273 281 284 286 300 309 308 314 318 321 321 326 329 330 327 330 330 322 318 315 310 309 307 302 302 304 302 295 293 287 280 285 281 267 259 247 240 233 236
219 221 213 219 240 257 262 264 264 272 273 276 280 285 293 300 309 310 311 318 320 321 326 328 324 321 323 321 319 320 315 312 309 299 297 299 297 292 287 288 289 289 284 273 256 258 244 241 240
223 226 227 232 230 248 259 257 259 272 277 275 277 280 288 295 302 306 307 313 316 318 321 326 323 319 315 315 315 315 314 309 304 296 294 296 292 291 286 283 291 293 286 273 261 255 258 252 254
226 232 225 230 228 235 248 257 263 264 268 270 275 282 288 293 297 301 304 307 312 314 313 318 321 318 314 310 310 310 307 303 299 296 297 295 288 289 288 285 289 288 280 274 266 259 263 262 268
227 232 229 231 236 237 244 251 255 256 262 269 272 277 283 287 292 296 300 304 306 308 308 308 312 315 311 307 303 301 301 299 296 294 298 297 284 280 281 288 290 285 272 270 267 258 258 263 263
233 236 239 239 241 240 242 247 254 257 262 262 269 273 280 286 292 295 296 300 303 303 304 303 304 305 305 301 298 296 297 294 291 291 295 292 286 276 275 283 279 279 275 266 260 260 263 274 271
239 239 242 243 244 247 244 247 253 258 265 268 271 271 277 283 287 291 293 296 300 301 300 302 303 303 301 295 292 293 294 289 287 290 293 288 283 282 278 278 275 268 267 267 268 267 269 279 280
240 242 244 245 246 250 252 253 256 258 263 267 270 271 277 281 285 288 292 295 297 301 297 298 298 300 299 294 290 289 287 287 287 290 293 292 287 283 278 276 276 276 273 265 266 272 277 276 273
243 246 248 250 250 251 253 255 259 262 262 262 266 269 274 278 282 285 288 291 294 298 296 296 299 298 295 294 292 289 285 285 286 287 289 292 290 282 275 271 270 273 276 275 272 279 278 277 274
243 247 249 250 249 251 253 254 257 261 263 265 267 271 273 276 279 282 284 286 291 294 292 291 292 293 293 292 290 288 284 283 285 287 287 289 293 288 280 274 274 274 279 283 285 289 285 281 282
245 250 251 247 246 250 254 255 257 262 263 265 268 271 273 276 276 279 282 284 287 288 287 288 289 291 290 288 285 284 283 281 281 283 284 285 289 291 289 284 282 279 278 284 288 288 289 283 279
236 239 243 244 247 247 254 255 255 260 263 265 267 269 272 273 274 278 280 283 284 286 285 285 285 287 286 285 282 280 280 279 279 282 283 284 284 283 283 282 282 280 279 284 285 286 285 283 279
233 234 234 239 245 247 251 254 252 257 264 264 265 268 271 274 275 277 279 280 281 283 284 282 281 282 282 280 278 277 275 277 277 278 278 280 279 275 276 277 278 276 277 281 285 285 284 283 282
234 234 229 234 247 253 256 254 251 256 262 262 265 268 269 271 271 273 276 278 278 280 282 282 281 279 278 276 275 275 273 276 276 275 276 278 275 273 274 274 275 273 277 279 282 286 286 284 281
237 239 234 231 240 252 256 257 256 255 261 262 263 264 265 271 273 274 277 278 279 279 280 283 282 279 276 277 275 274 274 273 273 274 271 272 271 271 272 271 274 274 276 278 279 281 283 283 282
236 235 235 233 239 244 252 259 260 264 262 262 264 261 263 270 274 274 278 280 280 279 279 280 279 278 277 277 276 273 271 269 271 271 270 269 268 269 270 273 273 273 276 277 278 279 282 283 282
234 234 235 236 242 247 248 254 258 263 266 263 265 263 260 264 269 271 275 277 278 278 278 277 275 275 276 278 277 274 271 269 269 270 270 269 267 267 268 271 273 273 275 276 276 278 279 281 281
234 233 236 241 243 250 254 256 257 261 265 267 268 263 261 264 267 271 272 273 275 276 277 275 272 273 275 277 278 275 270 269 270 270 268 267 268 267 269 269 271 273 274 275 277 279 280 279 281
233 230 232 236 244 254 256 256 258 255 256 261 263 261 264 268 270 273 272 274 275 274 274 274 273 273 275 276 277 276 272 271 271 269 266 267 267 267 268 270 272 273 272 272 275 276 278 280 282
235 235 234 237 241 252 253 252 259 260 258 254 256 262 266 269 268 270 271 273 269 269 272 274 275 275 275 277 275 278 274 270 267 267 266 267 267 268 270 272 274 275 275 273 273 274 275 277 279
236 236 235 232 237 243 252 258 262 260 259 260 265 265 264 266 266 269 267 268 270 270 270 271 275 277 276 276 275 277 275 270 267 266 266 269 269 272 275 275 275 275 275 274 273 273 274 274 276
236 234 234 234 234 239 248 254 260 266 265 264 265 261 259 261 265 269 268 268 269 269 269 271 275 278 277 275 276 277 276 271 267 265 267 269 270 272 276 275 274 274 276 275 273 274 276 276 277
242 245 241 237 236 235 244 256 255 259 263 264 262 259 259 262 267 269 271 266 263 265 266 268 272 275 275 276 277 277 274 271 270 268 269 270 271 274 276 275 273 275 277 276 277 277 276 279 279